STARLINK-5013 (55492 NORAD) Tracking and Keplerian Element Data

This shows tracking and keplerian element data for the satellite.

Feedback or suggestion? Click here.




ElementValue
Catalog55492
NameSTARLINK-5013
Epoch Orbit804
Epoch Day85.25001157
Epoch Year2023
RAAN84.2715
Inclination43.0002
Eccentricity0.0001632
Argument of Perigee262.3814
Mean Anonmoly295.9281
Mean Motion15.04520973
Decay Rate-0.0007853
L11 55492U 23015AV 23085.25001157 -.00078530 00000+0 -55606-2 0 9993
L22 55492 43.0002 84.2715 0001632 262.3814 295.9281 15.04520973 8045



Live tracking and technical data element details for STARLINK-5013 (NORAD 55492). STARLINK-5013 can be tracked NOW for your location showing map with azimuth and elevation plus other details from your city location.







IsCatalogInMostPopularTable: catalog: 55492, numindb: -1

Insert: records affected: 1


GetName: 55492 STARLINK-5013

Hit Count: inserted at: Tue, 28 Mar 2023 03:12:30 GMT